User: anonymous   Login
Location: *
(90.0000°N, 180.0000°W)
Time: 12:16:27
(UTC+01:00)
Language:

Cosmos 1825 - Orbit

View from above orbital plane
View from above orbital plane
View from above satellite
View from above satellite

Ground track
Ground track

The orbit data is extracted from the following two-line orbital elements,

1 17566U 87024A   17349.88360328  .00000868  00000-0  39934-4 0  9992
2 17566  82.5054 109.9918 0002662 319.5115  40.5920 15.19036041681420
Epoch (UTC): 15 December 2017 21:12:23
Eccentricity: 0.0002662
inclination: 82.5054°
perigee height: 507 km
apogee height: 510 km
right ascension of ascending node: 109.9918°
argument of perigee: 319.5115°
revolutions per day: 15.19036041
mean anomaly at epoch: 40.5920°
orbit number at epoch: 68142

The dashed part of the orbit path shows where the satellite is in the earth's shadow,  

DLR